Hourly Data Report for April 28, 2021

CARBERRY CS
MANITOBA
Current Station Operator: ECCC - MSC

49°54'20.900" N
99°21'26.800" W
383.50 m
5010547
71170
WZE

Download Data

Hourly Data (April 2021)
Hourly Data Report for April 28, 2021
TIME
LST
Temp Definition
°C
Dew Point Definition
°C
Rel Hum Definition
%
Precip. Amount Definition
mm

Wind Dir Definition
10's deg

Wind Spd Definition
km/h
Visibility Definition
km
Stn Press Definition
kPa
Hmdx Definition


Wind Chill Definition


Weather Definition


00:00 3.3 -7.4 46 0.0 4 22   96.96     LegendNANA
01:00 1.1 -10.3 42 0.0 4 21   96.97     LegendNANA
02:00 -0.1 -10.6 45 0.0 3 19   97.00   -5 LegendNANA
03:00 -0.6 -9.7 50 0.0 4 22   96.95   -6 LegendNANA
04:00 -0.7 -9.6 51 0.0 4 22   96.96   -6 LegendNANA
05:00 -1.4 -9.3 55 0.0 3 21   96.99   -7 LegendNANA
06:00 -1.8 -8.8 59 0.0 2 20   97.02   -8 LegendNANA
07:00 -1.1 -8.3 58 0.0 3 26   97.02   -7 LegendNANA
08:00 0.3 -7.9 54 0.0 2 26   97.10     LegendNANA
09:00 1.7 -7.3 51 0.0 3 27   97.08     LegendNANA
10:00 2.8 -7.0 49 0.0 3 28   97.07     LegendNANA
11:00 5.0 -6.7 43 0.0 4 24   97.06     LegendNANA
12:00 6.9 -5.4 41 0.0 4 25   97.02     LegendNANA
13:00 7.5 -5.5 39 0.0 4 21   97.03     LegendNANA
14:00 8.3 -5.7 36 0.0 2 22   97.04     LegendNANA
15:00 7.1 -6.5 37 0.0 36 21   97.08     LegendNANA
16:00 0.4 -2.4 82 0.0 1 28   97.06     LegendNANA
17:00 1.7 -2.1 76 0.0 36 21   97.14     LegendNANA
18:00 2.2 -2.3 72 0.0 3 14   97.13     LegendNANA
19:00 2.4 -1.6 75 0.0 2 11   97.15     LegendNANA
20:00 1.0 -2.2 79 0.0 2 9   97.18     LegendNANA
21:00 -1.4 -4.0 82 0.0 3 2   97.24   -2 LegendNANA
22:00 -3.9 -5.4 89 0.0 32 3   97.27   -5 LegendNANA
23:00 -4.8 -5.2 97 0.0 25 6   97.28   -8 LegendNANA

Notes on Data Quality.

Legend

  • E = Estimated
  • M = Missing
  • NA = Not Available*
  • [empty] = Indicates an unobserved value
Date modified: